Regional Weather Roundup
Issued by NWS

Home | Current Version | Previous Version | Text Only | Print | Product List | Glossary Off
Versions: 1 2 3 4 5 6 7 8 9 10 11 12 13 14 15 16 17 18 19 20 21 22 23 24 25 26 27 28 29 30 31 32 33 34 35 36 37 38 39 40 41 42 43 44 45 46 47 48 49 50

000
ASUS44 KMEG 010400
RWRTN
TENNESSEE HOURLY STATE WEATHER ROUNDUP
NATIONAL WEATHER SERVICE MEMPHIS TN
1100 PM CDT THU JUL 31 2014

TNZ002-004-019-021-049-052-054-088>092-010500-
WEST TENNESSEE

CITY           SKY/WX    TMP DP  RH WIND       PRES   REMARKS
MEMPHIS INTL   CLOUDY    73  67  81 N3        30.06S
NWS MEMPHIS      N/A     72 N/A N/A MISG        N/A
JACKSON        MOCLDY    69  65  86 CALM      30.06F
DYERSBURG      MOCLDY    70  61  73 CALM      30.07F
UNION CITY     MOCLDY    68  64  88 CALM      30.07R
PARIS          CLEAR     61  59  94 CALM      30.08S
LEXINGTON      CLEAR     64  63  94 CALM      30.06S
SAVANNAH       CLEAR     66  66 100 CALM      30.07S
$$

TNZ008-025-027-028-033-062-065-066-010500-
NORTH MIDDLE TENNESSEE

CITY           SKY/WX    TMP DP  RH WIND       PRES   REMARKS
NASHVILLE      PTCLDY    70  62  76 CALM      30.08R
CLARKSVILLE    MOCLDY    71  61  70 NW7       30.07R
COOKEVILLE     MOCLDY    64  63  94 CALM      30.09S
CROSSVILLE     PTCLDY    67  61  81 CALM      30.14S
$$

TNZ061-075-076-078-094-096-097-010500-
SOUTH MIDDLE TENNESSEE

CITY           SKY/WX    TMP DP  RH WIND       PRES   REMARKS
FAYETTEVILLE   CLEAR     66  59  77 NE9       30.08S
TULLAHOMA      CLEAR     64  59  82 CALM      30.09F
WINCHESTER     CLEAR     66  61  82 CALM      30.09S
MCMINNVILLE    CLEAR     64  64 100 CALM      30.09F
COLUMBIA       CLEAR     68  64  88 CALM      30.07S
SHELBYVILLE    CLEAR     66  64  94 CALM      30.08F
$$

TNZ017-018-042-046-047-010500-
NORTHEAST TENNESSEE

CITY           SKY/WX    TMP DP  RH WIND       PRES   REMARKS
TRI CITIES     CLOUDY    66  60  81 CALM      30.15S
ELIZABETHTON   CLEAR     64  57  77 E3        30.16S
$$

TNZ012-013-036-069-073-074-010500-
CENTRAL EAST TENNESSEE

CITY           SKY/WX    TMP DP  RH WIND       PRES   REMARKS
KNOXVILLE      CLOUDY    71  66  84 N6        30.08F
OAK RIDGE      PTCLDY    70  65  84 CALM      30.10F
GATLINBURG     PTCLDY    68  63  83 NE3       30.09F
$$

TNZ083-085-099-010500-
SOUTHEAST TENNESSEE

CITY           SKY/WX    TMP DP  RH WIND       PRES   REMARKS
CHATTANOOGA    MOCLDY    71  66  84 CALM      30.08S
$$

SKY/WX REPORTED AS FAIR MEANS FEW OR NO CLOUDS BELOW
12 THOUSAND FEET.




USA.gov is the U.S. government's official web portal to all federal, state and local government web resources and services.